Powrót do katalogu

STARLINK-37119

AktywnyŁącznośćSSO
NORAD 68210·PAYLOAD·🇺🇸 United States

Wystrzelony Mar 17, 2026 z Vandenberg Space Force Base

Loading…

Następne Przeloty (najbliższe 24 godziny)

TLE

ŚwieżeSource: CelesTrak SupGP

Epoka: Sep 14, 2026, 21:21 UTC

1 68210C 26053D   26257.89006944 -.00009749  00000+0 -30278-3 0  2575
2 68210  97.2846 131.6864 0002375  90.7338 128.5245 15.33425353    13

Śledź STARLINK-37119 w czasie rzeczywistym z AllMySat

Download on the App Store